Theta_e
310 315 319 321 322 324 324 326 332 326 323 325 323 324 319 317 316 315 315 314 313 308 304 303 303 304 306 306 305 304 304 305 309 317 320 307 301 300 299 299 297 297 300 300 299 298 300 304 307 308 309 310 310 310 310 310 309 310 310 310 310 310 310 310 310 310 310 310 310 310 310 310 309 310 310 310 311 311 312 312 311 311 311 312 312 311 312 313 313 313 313 313 313 313 312 312 312
314 318 321 323 321 325 326 323 334 328 325 327 322 322 318 315 315 314 315 314 313 307 303 303 302 302 303 303 303 304 303 301 302 306 305 300 300 299 298 297 293 296 298 297 296 297 299 303 306 307 307 309 309 309 309 309 309 309 309 309 309 309 309 310 309 309 309 310 309 309 309 309 309 309 309 309 309 310 310 310 310 310 310 311 311 311 311 311 311 312 312 312 312 312 312 311 311
318 321 321 324 321 322 325 326 333 328 326 328 323 319 315 314 313 312 312 312 309 305 304 304 304 303 304 305 304 306 305 300 299 302 302 299 299 298 296 294 293 296 296 295 296 296 298 302 305 306 306 307 308 308 309 308 308 308 308 308 309 309 309 309 309 309 309 309 309 308 308 308 308 308 308 308 308 308 309 309 309 309 309 310 310 310 310 310 310 310 310 311 311 311 311 310 310
320 321 320 323 323 321 326 329 328 326 326 326 323 317 313 313 312 311 309 309 306 305 306 306 306 302 303 306 303 304 304 300 299 300 300 297 297 295 294 293 294 295 295 296 296 296 296 300 304 304 304 306 306 307 307 307 307 307 307 307 308 307 308 308 307 308 307 307 308 308 307 307 307 307 307 307 307 307 308 308 308 308 308 308 309 309 309 309 309 310 309 310 311 310 310 309 309
320 322 320 321 325 323 324 324 323 324 323 322 322 316 313 313 310 310 308 307 305 305 307 307 308 303 300 302 302 303 302 301 299 297 297 295 294 293 293 294 294 295 295 296 296 296 295 298 303 303 303 305 305 305 306 306 306 306 306 306 307 306 306 307 306 306 306 306 306 307 307 306 306 306 307 306 307 307 307 307 307 308 308 307 308 308 308 308 308 309 309 309 310 310 309 308 308
320 320 317 316 318 318 321 321 320 319 316 317 319 315 313 312 309 308 306 306 304 305 306 305 307 304 302 300 300 301 300 302 298 294 295 294 294 293 293 293 294 295 295 296 296 296 295 296 300 302 302 303 304 303 304 305 305 305 305 305 305 305 305 306 306 305 305 305 305 305 305 305 305 305 305 305 306 306 306 306 306 307 307 307 307 307 307 307 308 308 309 309 309 308 308 307 307
320 322 319 318 317 314 318 318 318 317 313 313 315 313 312 311 309 308 307 308 306 304 305 304 304 305 305 301 300 299 296 298 296 295 295 294 294 293 294 294 294 295 295 296 296 296 296 295 297 300 301 302 302 302 302 303 304 304 304 304 304 304 304 304 305 304 304 304 304 304 304 304 304 304 304 304 304 305 305 306 306 306 306 306 306 306 306 306 307 307 308 308 308 307 307 306 306
319 324 319 317 320 317 317 315 315 315 311 310 310 310 310 309 309 308 307 308 306 304 304 303 304 306 304 300 302 300 295 296 296 297 296 294 294 293 294 294 294 295 296 296 296 296 296 296 295 298 299 300 301 301 301 301 302 303 303 303 303 304 303 303 303 303 303 303 303 303 302 303 303 303 303 302 303 303 304 304 305 305 305 305 306 306 306 306 306 306 306 307 307 307 306 305 305
316 321 321 317 319 318 317 316 315 313 310 308 308 308 308 307 308 306 306 306 305 304 303 302 304 306 303 301 302 301 298 298 297 297 296 294 293 293 294 294 294 295 296 295 296 296 296 296 295 296 296 298 300 300 300 300 301 302 302 302 302 303 302 302 302 302 302 302 302 302 301 301 301 301 301 301 302 302 302 303 304 304 304 304 305 305 305 305 305 305 306 306 306 306 306 305 304
318 319 322 320 319 317 316 316 315 311 309 308 306 306 307 306 306 306 306 306 305 305 304 302 303 304 302 301 302 300 299 299 298 297 295 294 292 293 293 293 294 295 296 296 295 296 295 296 295 296 295 296 297 298 299 299 300 301 301 301 301 301 301 301 301 301 301 301 301 301 300 300 300 300 300 300 300 301 301 301 302 303 303 303 303 303 304 304 304 305 305 305 305 305 305 304 303
327 321 320 321 321 319 317 315 313 310 307 307 306 305 306 306 305 305 306 307 305 306 304 303 304 302 301 302 301 300 298 299 298 295 293 293 292 293 294 294 295 295 295 295 295 295 295 295 295 296 295 295 295 295 296 298 300 300 299 299 300 300 300 299 300 300 299 299 299 300 299 299 299 299 299 299 299 299 299 300 301 301 302 302 302 302 302 302 303 303 304 304 304 304 304 304 303
329 321 319 323 321 318 315 313 311 310 308 308 307 305 305 305 305 305 305 306 305 307 305 303 304 301 302 303 301 299 298 299 298 294 292 292 293 293 294 294 295 295 295 295 295 295 295 295 295 295 295 295 295 295 295 296 298 298 298 298 299 299 299 298 298 299 298 298 298 298 299 298 298 298 298 298 298 298 298 298 299 300 300 300 301 300 300 301 301 302 303 303 303 303 303 303 302
325 321 322 322 317 316 314 314 312 312 311 308 306 304 304 304 304 304 305 306 306 309 306 301 302 303 304 302 301 300 299 299 295 293 292 292 293 293 294 294 295 295 295 296 295 295 295 295 295 295 295 295 295 295 294 294 296 297 297 297 298 298 297 297 297 297 297 297 297 297 298 297 296 297 297 296 296 297 297 297 297 299 299 299 299 299 299 299 300 301 301 301 301 301 301 301 299
322 322 324 320 316 317 316 316 315 315 312 306 305 304 302 302 302 303 306 309 306 306 303 299 300 305 305 301 304 305 299 296 294 292 293 293 294 295 295 295 296 296 296 296 296 295 295 295 295 295 295 295 295 295 294 294 294 294 295 295 296 296 296 296 295 295 295 295 295 295 297 295 294 295 295 295 295 295 296 296 296 297 298 298 298 298 297 297 298 299 299 300 300 299 299 298 296
321 322 323 321 319 320 318 317 315 316 313 307 306 303 302 301 301 303 305 308 305 300 300 299 299 305 306 299 302 303 297 294 292 293 294 295 295 296 296 296 296 296 296 296 296 295 295 295 295 295 295 294 295 295 294 294 293 293 294 294 294 294 294 294 294 294 294 294 294 294 295 294 293 294 294 294 294 294 294 294 294 296 297 296 297 296 296 295 296 297 297 297 298 297 296 294 292
315 320 325 323 320 320 317 315 314 317 313 306 305 303 304 301 300 304 301 302 303 299 299 300 299 302 305 301 299 298 294 293 293 294 295 296 296 296 296 296 296 296 296 296 295 295 295 295 295 295 294 294 295 295 294 293 293 293 293 294 294 294 294 294 294 294 293 294 294 294 294 294 294 294 294 293 293 293 293 293 293 294 295 295 295 295 294 293 294 294 294 295 295 294 291 289 288
314 319 322 322 319 319 318 316 317 318 311 305 305 305 306 302 301 301 298 299 301 300 300 299 297 298 301 300 298 295 294 295 295 296 296 296 296 296 296 296 296 296 296 295 295 295 295 295 295 294 294 295 295 294 294 293 293 293 294 294 294 294 294 294 294 294 293 293 294 294 293 293 293 293 293 293 293 293 293 292 292 292 292 293 293 292 291 291 292 292 290 291 291 289 286 286 286
320 323 318 320 320 317 319 318 315 314 310 307 305 305 305 303 302 301 298 300 300 300 301 300 298 296 298 297 296 295 295 296 296 296 296 296 296 295 295 295 295 295 295 295 295 295 295 295 295 294 295 295 294 294 294 294 294 294 294 294 294 294 294 294 294 294 293 293 293 293 293 293 293 293 293 293 292 292 292 292 292 291 291 291 291 290 289 289 290 289 288 288 287 285 284 285 285
316 321 317 317 316 312 313 315 311 311 309 305 303 303 304 302 302 301 300 300 300 301 300 301 300 297 297 296 296 296 296 296 296 296 296 296 296 295 295 295 295 295 295 295 295 295 295 295 295 295 295 295 294 294 294 294 294 294 294 294 293 294 294 294 294 294 293 293 293 293 293 293 293 293 293 292 292 292 292 291 291 290 290 290 289 289 288 287 287 286 285 285 284 284 284 284 284
310 316 318 312 309 308 307 309 308 307 305 304 301 301 301 299 299 300 300 299 300 301 299 298 298 298 298 297 296 297 296 296 296 296 296 296 295 295 295 295 295 295 295 295 295 295 295 295 295 295 295 295 294 294 294 294 294 294 294 294 293 294 294 294 294 293 293 293 293 293 293 293 293 293 292 292 292 292 291 291 290 289 289 288 288 288 287 286 285 285 284 284 283 283 283 283 283
308 310 314 308 306 307 304 304 305 302 301 302 301 301 300 297 297 299 300 301 299 299 298 297 297 298 299 296 296 297 296 296 296 295 295 295 295 295 295 295 294 294 295 295 295 295 295 295 295 295 295 295 294 294 294 294 294 294 294 294 294 294 294 294 293 293 293 293 293 293 293 292 292 292 292 292 291 291 291 290 289 288 287 287 286 286 286 285 284 284 283 283 283 282 282 283 283
307 304 307 305 305 305 301 301 302 300 301 302 302 303 299 296 296 297 301 302 300 299 298 298 298 298 298 296 296 296 296 296 295 295 295 295 295 295 295 295 295 294 295 295 295 295 294 295 295 295 295 295 294 294 294 294 294 294 294 294 294 294 294 293 293 293 293 293 293 292 292 292 292 292 291 291 291 290 290 289 288 287 287 286 285 284 284 284 283 283 283 282 282 282 282 282 282
307 304 302 302 303 303 301 301 301 301 303 303 302 300 297 297 296 296 299 299 298 297 295 295 296 295 296 295 294 294 294 294 294 294 295 295 295 295 295 295 295 295 295 295 295 295 294 295 295 295 295 295 294 294 294 294 294 294 294 294 293 293 293 293 293 293 293 292 292 292 292 291 291 291 290 290 290 289 288 287 286 286 285 285 284 283 283 283 282 282 282 282 282 282 282 282 282
305 303 300 299 300 300 300 300 299 301 302 300 299 299 297 298 297 295 296 297 297 295 292 293 294 294 294 293 293 293 293 294 294 295 295 295 295 295 295 295 295 295 295 295 295 295 295 295 295 295 295 294 294 294 294 294 294 294 294 294 293 293 293 293 293 292 292 292 292 291 291 291 290 290 289 289 288 287 286 285 284 284 283 283 283 282 282 282 282 282 282 282 282 282 282 282 282
303 302 300 298 298 297 297 298 298 299 298 297 298 299 298 296 297 296 296 298 298 293 292 293 293 294 292 291 292 293 294 295 295 295 295 295 295 295 295 295 295 295 295 295 295 295 295 295 295 295 295 294 294 294 294 294 294 294 294 294 293 293 293 293 292 292 292 292 291 291 290 290 289 289 288 287 286 285 284 283 283 283 282 282 282 282 282 281 281 281 281 281 282 282 282 282 282
303 300 300 299 298 298 298 299 299 299 298 299 300 298 298 296 296 297 297 299 295 292 294 292 292 297 293 290 293 294 295 296 296 296 296 296 296 295 296 296 296 295 295 295 295 295 295 295 295 295 295 294 294 294 294 294 294 294 293 293 293 293 293 292 292 292 291 291 291 290 290 289 288 287 286 285 284 283 282 282 282 281 281 281 281 281 281 281 281 281 281 281 281 281 281 281 282
300 298 299 299 300 300 301 301 301 302 300 301 302 299 299 298 297 299 298 298 295 296 299 295 294 300 297 291 293 295 295 296 296 295 296 296 296 296 296 296 296 296 296 295 295 295 295 295 294 294 294 294 294 294 294 293 293 293 293 293 293 293 293 292 292 291 291 290 290 290 289 288 287 286 285 283 282 282 281 281 281 281 281 281 281 281 281 281 281 281 281 281 281 281 281 281 281
299 299 300 300 301 301 301 302 301 301 300 300 301 299 299 298 298 300 299 297 297 298 300 301 300 302 300 293 292 295 295 295 296 295 296 296 296 296 296 296 296 296 296 295 295 295 295 295 295 294 294 294 294 294 293 293 293 293 293 293 293 293 292 292 291 291 290 290 289 289 288 287 286 284 283 282 281 281 281 281 281 281 281 281 281 281 281 281 281 281 281 281 280 280 281 281 281
301 301 301 301 303 302 300 302 301 301 300 298 299 299 302 301 299 300 300 299 299 299 300 303 303 302 302 296 292 294 295 296 296 296 296 296 296 296 296 296 295 296 295 295 295 295 295 295 294 294 294 294 294 294 293 293 293 293 293 293 293 292 292 291 291 290 289 289 289 288 287 285 284 282 281 281 280 280 280 280 280 280 280 280 281 281 281 280 280 280 280 280 280 280 280 280 281
302 302 302 304 308 304 300 301 301 301 299 298 298 302 308 305 303 303 300 299 299 300 301 302 303 302 301 298 295 294 294 296 296 296 297 296 296 296 296 296 295 296 295 295 295 295 294 294 294 294 294 294 294 293 293 293 293 293 293 293 293 292 292 291 290 289 289 288 287 286 285 283 282 281 280 280 280 280 280 280 280 280 280 280 280 280 280 280 280 280 280 280 280 280 280 280 280
302 300 303 307 309 304 301 302 302 301 299 298 299 303 309 305 304 304 298 297 297 299 301 302 303 302 300 300 299 297 295 296 296 296 297 297 297 296 296 296 296 296 295 295 295 295 294 294 294 294 294 294 294 293 293 293 293 293 293 292 292 292 291 290 289 288 288 287 286 285 283 281 280 280 280 280 280 280 280 280 280 280 280 280 280 280 280 280 280 279 279 279 279 279 279 279 279
302 302 306 306 306 303 302 301 301 301 298 298 300 304 309 304 303 303 296 296 297 298 301 302 303 302 301 300 300 299 295 295 296 297 297 297 297 296 296 296 296 296 295 295 295 294 294 294 294 294 294 294 294 293 293 293 293 293 293 292 292 291 290 289 288 287 287 286 284 282 281 280 280 280 280 280 279 279 279 279 279 279 279 279 279 279 279 279 279 279 279 278 278 279 279 279 279
305 305 308 306 305 304 303 300 298 300 299 299 300 302 305 302 301 302 297 297 298 298 301 302 302 301 300 299 299 299 297 295 295 296 297 297 297 296 296 296 296 296 295 296 295 295 294 294 294 294 294 294 293 293 293 293 293 292 292 292 291 291 290 289 287 286 285 283 282 280 280 280 280 280 279 279 279 279 279 279 279 279 279 279 279 279 279 279 278 278 278 278 278 278 278 278 278
307 306 306 302 302 303 303 302 299 299 300 300 300 301 304 303 302 304 299 297 298 299 301 302 301 301 300 299 299 299 300 298 295 296 298 296 297 296 296 296 295 296 296 295 295 295 294 294 294 294 294 294 293 293 293 293 293 292 292 291 291 290 289 287 285 284 282 281 280 280 280 280 279 279 279 279 279 279 278 278 278 278 278 278 278 278 278 278 278 278 277 277 278 277 277 278 278
310 310 308 303 301 302 302 303 300 300 302 302 303 302 304 305 303 305 300 296 298 300 300 300 300 300 300 300 299 298 300 299 296 297 298 296 296 296 296 296 296 296 296 295 295 294 294 294 294 294 294 294 293 293 293 293 292 292 291 291 291 289 287 285 283 282 281 280 280 280 280 279 279 278 278 278 278 278 278 278 278 277 278 277 278 278 278 278 277 277 277 277 277 277 277 277 277
310 310 310 306 304 303 302 302 300 298 301 303 304 302 303 305 304 305 302 297 298 300 300 300 300 301 300 300 300 298 300 299 296 297 297 296 296 296 296 296 296 296 295 295 295 294 294 294 294 294 294 293 293 293 292 292 292 291 291 290 289 287 284 282 281 280 280 280 280 279 279 278 278 278 278 278 278 277 277 277 277 277 277 277 278 278 278 277 276 276 276 276 276 276 277 277 277
305 307 307 306 305 304 301 302 301 298 300 302 302 302 303 304 304 305 302 298 299 301 301 301 301 301 301 300 300 300 299 297 295 296 297 296 296 296 296 296 296 296 296 295 295 294 294 294 294 294 293 293 293 292 292 291 291 290 289 287 286 283 282 281 280 280 280 280 279 279 278 278 278 277 277 277 277 277 277 277 276 276 276 277 278 277 277 276 276 276 276 276 276 276 277 277 276
304 306 307 306 304 304 301 301 303 299 300 303 301 302 304 305 305 304 301 299 301 302 301 301 301 301 300 299 301 300 297 294 293 295 297 297 296 296 296 296 296 296 295 295 294 294 294 294 294 293 293 293 292 292 291 291 290 288 287 285 283 281 281 281 280 280 280 279 279 278 278 277 277 277 277 277 277 277 276 276 276 276 276 276 277 277 276 276 275 275 275 275 275 276 276 276 276
307 307 307 306 302 302 303 302 304 301 300 304 304 302 303 303 304 304 302 302 303 301 300 300 300 300 300 299 300 299 298 297 295 294 296 297 296 296 296 296 296 296 295 295 294 294 294 294 294 293 293 292 292 292 291 290 289 288 286 284 282 281 281 281 280 280 279 279 278 278 278 277 277 277 277 277 276 276 276 276 275 275 275 276 277 277 276 275 274 275 275 275 275 275 276 276 276
307 307 306 306 302 302 304 302 305 303 298 301 303 302 303 303 304 304 301 300 301 300 299 299 298 300 300 298 297 298 300 301 299 294 293 296 297 295 296 296 296 296 295 294 294 294 294 294 293 293 293 292 292 291 291 290 289 288 286 283 282 282 282 281 281 280 280 279 278 278 278 278 277 277 276 276 276 275 275 275 275 275 275 276 277 276 275 274 274 274 275 275 275 275 275 275 275
305 306 307 306 303 302 304 303 305 304 299 298 301 304 309 308 308 308 301 298 300 300 299 301 300 298 297 297 297 297 297 298 300 297 293 295 296 295 295 296 296 296 295 294 294 294 294 293 293 292 292 292 291 291 290 289 288 287 285 283 283 282 282 281 280 279 279 279 279 278 278 278 277 276 276 276 275 275 275 275 274 274 274 275 276 276 274 274 274 274 274 274 274 275 275 275 275
306 302 302 302 302 304 307 307 306 307 305 299 298 307 317 312 309 311 305 303 304 301 301 304 304 301 300 302 301 300 299 295 294 294 293 294 296 295 296 296 296 295 295 294 294 294 294 293 293 292 292 292 291 290 289 288 287 285 283 282 282 281 280 279 279 278 278 278 278 278 278 277 276 276 276 275 275 275 275 274 274 274 274 275 276 275 273 273 273 273 274 273 274 274 274 275 275
306 300 300 301 303 305 308 308 305 307 307 298 297 306 312 309 310 310 304 305 306 303 304 305 306 305 304 305 305 304 303 300 296 292 291 294 296 295 296 296 296 295 294 294 294 293 293 293 292 292 292 291 290 289 288 287 285 283 281 281 281 279 279 278 278 278 278 278 278 278 277 276 276 276 275 275 275 275 275 274 274 274 274 274 275 274 273 273 273 273 273 273 274 274 274 274 274
303 299 301 303 304 305 307 307 307 307 304 300 301 302 303 307 310 306 301 304 305 304 305 306 307 308 306 306 306 306 306 305 304 297 292 294 296 295 296 296 295 295 294 294 294 293 293 293 292 292 291 291 290 289 287 286 284 282 281 281 280 279 278 278 278 278 279 279 278 277 277 276 275 275 275 275 275 275 274 274 274 273 273 274 274 273 272 272 272 273 273 273 273 273 273 274 274
301 299 300 302 302 305 306 308 311 307 303 307 305 298 302 312 313 306 301 302 306 306 306 307 307 307 307 306 305 306 305 299 296 294 292 294 296 295 295 296 295 295 295 294 294 293 293 292 292 291 291 290 289 288 287 285 282 281 282 281 280 279 278 278 278 278 279 278 278 277 277 276 276 276 275 275 274 274 274 273 273 273 272 273 273 272 272 272 272 272 272 272 273 273 273 273 274
300 298 300 301 301 303 303 306 309 306 308 313 306 298 303 313 314 308 302 302 308 308 306 306 307 306 305 306 305 305 306 299 290 289 292 294 295 295 295 295 296 295 295 294 294 293 293 292 292 291 291 290 288 287 286 283 281 281 281 281 280 279 278 278 279 279 278 278 277 277 276 276 276 276 275 275 274 273 273 273 273 272 272 272 272 272 272 272 271 272 272 272 272 272 272 273 273
298 300 302 303 304 303 304 307 308 308 316 316 304 299 302 308 314 312 304 303 308 307 304 303 304 305 304 305 305 303 305 303 292 287 292 295 295 296 296 295 295 295 295 294 293 293 292 292 292 291 290 289 287 286 284 282 281 281 281 280 279 278 278 278 278 278 277 277 276 276 276 276 276 276 275 274 274 273 273 273 272 272 272 272 271 271 271 271 271 271 271 272 272 272 272 272 272
300 304 305 304 308 304 306 314 309 309 320 311 302 300 300 306 316 313 306 304 306 305 303 301 302 306 306 305 306 305 303 302 296 288 291 295 296 296 296 296 295 295 295 294 293 293 292 292 291 290 289 288 287 285 283 281 281 281 281 279 279 278 277 277 276 276 276 275 276 276 276 276 276 276 275 274 273 273 273 273 272 272 271 271 271 271 271 271 271 272 272 272 272 272 273 273 273
304 309 309 310 317 311 313 322 311 310 315 303 299 301 299 305 312 309 307 306 305 304 304 305 305 307 308 306 306 305 301 301 301 293 289 293 295 296 296 295 295 295 294 294 293 293 292 292 291 290 289 287 286 284 282 281 281 281 280 279 278 278 277 276 276 275 275 275 275 275 275 275 275 275 274 274 273 273 273 273 272 271 271 271 271 271 271 271 272 272 272 273 273 273 273 274 274
306 308 308 312 317 312 316 320 308 308 311 299 296 300 303 309 307 305 307 304 301 302 302 303 302 302 304 303 302 302 301 302 303 292 287 293 296 295 296 295 295 295 294 294 293 292 292 291 290 289 288 287 285 284 281 280 281 281 280 279 278 278 277 276 276 275 276 275 275 275 275 274 274 273 273 273 273 272 273 272 271 271 271 271 271 272 272 272 272 273 273 273 274 274 274 274 274
304 301 303 310 311 305 311 316 308 308 310 304 298 300 311 312 302 302 304 301 299 299 298 298 299 299 299 298 298 301 303 304 303 293 288 294 296 295 296 295 295 295 294 294 293 292 292 291 290 289 288 287 285 283 281 280 281 280 280 279 278 277 276 276 276 276 276 276 276 276 275 274 273 273 273 273 272 272 272 272 271 271 271 271 271 272 272 272 273 273 274 274 274 274 275 275 275
301 298 305 309 306 305 307 304 303 302 305 310 304 302 309 305 298 300 300 300 299 299 300 299 302 302 299 301 302 304 305 305 308 301 292 293 296 295 295 295 295 295 294 294 293 292 292 290 290 289 287 286 284 282 280 280 281 280 280 279 278 277 276 276 276 276 276 276 276 276 275 274 274 274 273 273 272 272 272 271 271 271 271 271 271 272 272 273 273 274 274 275 275 275 275 275 275
301 303 306 301 297 306 308 298 297 298 304 312 306 302 307 302 299 303 300 300 300 300 302 302 304 306 303 305 306 306 307 305 305 300 292 293 296 295 296 295 295 295 294 294 293 292 291 290 289 288 287 286 284 281 280 280 281 280 279 278 277 276 276 276 276 276 276 276 276 276 275 274 274 274 274 273 272 272 271 271 271 271 271 271 272 272 272 273 273 274 274 275 275 275 275 276 276
303 307 301 296 296 304 307 303 305 307 309 313 306 304 309 305 304 306 302 302 303 302 304 303 304 306 304 306 306 305 305 301 298 293 289 293 295 295 296 295 295 295 294 293 293 291 291 290 289 288 287 285 283 280 280 281 280 280 279 278 276 276 275 276 276 276 276 277 277 276 275 275 275 274 273 272 272 272 272 272 272 272 272 272 272 272 273 273 274 274 275 275 275 275 276 276 276
299 302 297 299 304 305 306 306 308 308 307 312 310 305 305 303 306 308 304 304 305 304 304 304 304 304 304 306 306 305 303 300 301 296 290 292 295 295 296 295 295 295 294 293 292 291 290 289 288 287 286 284 282 280 280 280 280 279 279 277 276 275 275 276 276 276 276 277 277 276 276 275 275 274 273 272 272 272 272 273 272 272 272 272 272 273 273 273 274 275 275 275 275 275 276 276 276
300 303 299 302 305 303 304 303 302 306 307 309 312 312 311 309 309 309 305 306 308 306 304 305 305 305 305 305 304 304 302 300 304 300 291 291 295 295 295 295 295 294 293 293 292 291 290 289 288 287 286 283 281 280 280 280 279 279 278 276 275 275 275 276 276 276 276 277 276 276 275 276 275 274 274 273 273 273 273 273 273 273 272 272 273 273 273 274 274 275 275 275 276 276 276 276 276
303 308 304 304 302 298 301 300 298 304 309 308 308 313 319 312 306 308 308 308 308 306 306 307 308 307 307 306 303 302 300 299 301 297 290 291 294 294 294 295 295 293 293 292 291 290 289 288 287 286 285 282 280 280 280 280 279 279 278 276 275 275 275 276 276 276 276 276 276 276 275 276 275 274 274 274 273 273 273 273 273 273 273 273 273 273 273 274 275 275 276 276 276 276 276 276 276
300 304 303 306 306 303 308 307 301 300 303 307 306 309 316 309 301 303 306 305 305 304 304 307 307 306 306 304 301 298 296 298 298 292 288 290 292 293 294 294 294 293 293 291 291 290 288 288 287 286 284 282 280 280 280 280 279 279 277 276 275 275 275 275 276 276 276 276 276 276 276 276 275 275 274 274 274 274 274 274 273 273 273 273 273 273 274 275 275 276 276 276 277 277 277 277 276
Wind_Speed
1 4 6 4 4 4 8 7 4 4 3 5 4 1 3 3 3 2 2 1 0 1 1 2 4 4 4 5 6 6 3 2 1 1 0 2 4 5 4 7 9 10 12 14 18 19 19 23 26 25 25 25 26 26 27 28 29 28 28 28 27 27 26 25 25 24 24 24 24 25 24 24 25 26 24 24 23 23 23 23 24 24 23 23 23 23 23 24 24 23 22 21 22 22 22 22 22
1 7 12 12 9 5 2 4 5 3 4 5 3 2 3 3 2 2 2 1 1 2 3 2 4 7 7 7 6 5 4 2 0 1 2 4 4 3 4 8 11 11 12 15 18 20 20 22 24 24 24 25 25 26 26 27 29 28 28 28 27 27 26 26 25 25 24 24 24 24 24 23 24 25 25 24 23 23 23 23 23 23 23 23 22 22 22 22 22 23 23 22 22 22 21 22 22
3 9 11 13 11 7 2 4 5 2 5 5 2 2 2 2 2 2 2 1 3 4 3 1 3 3 2 4 1 1 2 1 1 1 3 4 3 4 6 9 9 9 12 16 18 20 20 22 23 23 24 24 25 25 25 26 28 28 27 27 27 27 26 26 26 25 25 24 24 24 24 24 23 24 24 24 23 23 23 22 23 23 23 22 22 22 22 22 21 21 22 22 22 21 21 21 22
5 7 4 6 7 6 4 5 3 3 5 4 2 2 2 2 2 3 3 3 4 3 2 1 2 2 2 4 2 1 2 0 1 1 3 3 4 7 8 7 7 9 12 15 18 20 21 22 22 23 24 24 24 24 25 25 26 27 26 26 26 26 26 25 25 25 26 25 24 24 24 24 24 24 24 24 23 23 23 22 22 22 22 22 22 21 21 21 21 21 21 21 21 21 21 21 22
15 13 9 8 5 3 4 3 2 4 3 1 1 2 3 4 4 5 3 3 3 1 1 0 1 1 2 3 1 1 1 2 2 1 3 5 7 9 8 7 7 9 12 15 17 19 21 22 21 22 23 24 24 23 23 23 24 25 25 25 24 25 25 24 24 24 26 26 25 24 24 24 24 24 24 24 24 24 23 23 22 22 22 21 21 21 21 20 20 20 20 20 20 21 21 22 22
22 24 25 19 6 1 4 4 5 5 3 2 2 3 3 5 6 7 6 6 4 2 2 2 1 1 2 1 1 1 1 1 2 3 4 6 8 7 6 5 5 9 11 13 16 17 19 21 20 21 22 22 22 22 22 22 22 23 24 24 23 24 24 23 23 23 24 25 25 24 24 24 24 24 24 24 25 24 24 23 23 22 21 21 21 21 21 21 20 20 21 20 19 20 21 22 22
10 13 16 15 6 3 6 5 5 4 5 5 3 4 3 4 5 5 4 3 4 4 4 2 1 3 1 1 0 1 2 1 3 4 5 7 6 5 5 4 5 8 10 12 13 15 16 18 19 19 20 21 22 22 22 22 21 22 23 24 23 23 23 23 22 23 23 24 24 24 24 24 24 24 24 25 25 25 24 24 23 23 22 21 21 21 21 21 20 20 20 20 20 19 20 21 21
13 6 2 7 5 4 5 5 5 2 4 6 5 6 5 4 3 3 3 2 2 3 4 1 1 2 1 2 1 2 3 2 4 5 6 6 6 5 3 3 5 7 9 10 11 13 14 15 16 17 18 20 21 22 22 22 21 21 22 23 22 22 23 23 22 22 22 23 23 24 24 24 24 24 24 26 26 26 25 25 24 24 23 22 21 20 20 20 20 20 19 19 20 19 18 19 20
19 8 2 6 6 4 5 4 5 3 3 5 6 7 6 6 4 4 5 4 1 1 5 4 2 2 1 3 1 3 3 4 6 6 6 7 6 5 2 3 6 7 8 9 10 12 13 14 14 15 17 18 20 21 21 21 21 20 21 22 21 21 22 22 22 21 21 21 22 23 23 24 24 24 24 25 26 26 26 26 25 24 23 22 22 21 21 20 20 20 19 18 18 18 17 17 19
11 7 4 5 5 5 5 3 3 3 4 5 6 6 5 5 5 5 5 4 1 1 5 5 3 4 2 2 2 2 3 5 7 7 6 6 5 3 2 3 5 7 7 9 10 11 12 13 13 14 15 17 19 20 21 21 20 20 20 21 20 20 21 22 21 21 20 20 21 21 22 23 23 23 23 24 25 25 26 26 25 24 23 23 22 21 21 21 21 21 20 18 18 18 17 17 18
5 5 4 5 5 5 4 4 3 3 4 4 4 6 4 4 4 4 3 3 3 2 4 5 4 3 2 2 2 2 3 5 7 7 5 4 4 3 3 3 4 6 7 9 10 10 11 12 13 13 14 15 17 19 20 21 20 19 19 20 20 19 21 22 21 20 20 20 20 20 21 22 22 21 22 23 24 24 25 25 25 24 23 23 22 22 22 21 20 20 20 19 18 18 17 17 18
4 3 4 6 3 3 4 5 4 4 3 4 3 5 3 4 4 3 3 3 3 4 4 4 2 1 2 2 2 2 3 4 6 6 4 4 3 3 3 4 5 6 8 10 10 10 10 12 13 13 13 14 16 19 21 21 20 18 19 19 18 18 20 22 21 20 20 19 19 19 20 21 21 21 21 22 22 23 24 24 24 24 24 24 23 23 23 22 21 20 20 19 19 18 17 17 18
4 2 6 5 2 4 5 5 4 4 3 2 2 4 3 4 4 1 2 4 4 4 4 4 2 2 2 1 2 2 4 4 5 4 3 3 3 4 6 7 9 9 9 10 10 10 10 11 13 12 12 13 15 18 21 22 20 18 18 18 17 17 20 22 21 20 20 20 19 18 18 19 20 19 20 21 21 22 22 23 24 24 24 25 24 24 23 22 21 20 20 20 19 19 17 17 18
3 3 6 4 1 4 4 4 3 3 2 1 1 3 3 3 1 1 3 5 6 1 2 5 1 1 2 1 3 3 4 4 3 2 2 4 6 8 9 10 10 10 10 10 10 10 9 11 12 11 11 12 14 18 21 21 20 19 18 17 17 17 19 22 22 20 20 21 20 18 17 18 19 18 18 19 20 21 21 22 23 23 24 24 24 24 24 23 21 20 20 20 20 19 19 18 19
4 3 5 5 3 3 2 2 3 4 2 1 2 2 4 2 0 2 3 4 3 2 3 4 2 1 1 1 1 3 2 3 1 2 4 6 8 9 9 9 8 9 9 9 9 8 8 10 12 10 10 12 14 18 21 21 20 18 16 16 17 18 19 21 23 22 21 21 20 20 19 19 20 19 18 18 19 20 21 22 23 22 23 24 24 23 24 23 22 21 21 20 20 20 20 20 20
3 4 5 4 4 3 1 2 3 4 2 2 4 3 5 4 2 3 1 3 1 4 3 2 3 1 2 2 2 3 1 1 2 4 6 7 7 8 7 7 7 7 7 8 8 7 7 9 11 10 10 12 14 19 21 20 19 18 16 16 17 18 18 19 21 22 21 21 20 20 20 21 21 19 18 18 19 21 22 23 24 23 23 23 22 23 24 23 22 22 22 21 21 21 22 23 22
3 4 6 4 3 4 3 3 4 4 4 4 2 1 5 2 3 2 1 5 4 4 4 1 2 1 2 1 1 1 1 2 3 5 6 7 8 9 8 7 7 7 7 7 7 6 6 8 10 11 12 13 16 20 20 18 18 18 18 17 17 18 18 18 20 22 22 21 20 20 20 21 19 17 16 18 19 21 23 24 25 25 25 24 22 23 24 23 22 22 23 22 22 23 24 24 23
5 4 5 4 3 3 4 5 4 4 5 3 2 3 6 4 1 0 2 7 5 4 4 3 3 3 0 0 0 1 2 3 4 6 8 9 10 11 10 8 7 9 8 7 7 6 6 9 11 12 13 15 19 20 19 18 17 18 19 18 17 17 18 18 20 22 23 22 21 21 21 20 17 15 15 18 20 21 23 25 26 26 26 26 24 25 26 24 23 24 25 25 25 25 25 25 24
5 4 5 3 2 2 2 5 4 3 6 5 4 4 4 2 1 1 3 5 6 6 5 5 5 5 3 1 1 2 3 4 6 7 9 10 11 11 11 9 9 9 7 7 7 6 7 11 12 13 14 17 21 20 18 19 18 18 18 18 17 17 18 19 20 22 24 24 22 22 21 18 15 15 17 19 21 22 24 25 26 26 27 27 26 27 28 26 26 27 28 27 28 28 27 26 25
4 4 5 1 3 3 4 4 5 4 8 8 4 3 4 2 2 2 4 2 6 4 1 4 4 4 5 4 2 3 5 5 6 8 10 11 11 11 10 11 11 10 8 8 7 6 9 12 13 14 15 18 21 20 18 18 19 18 17 17 17 18 19 19 20 22 24 23 22 22 19 16 16 17 18 20 22 24 25 26 26 26 27 27 27 28 29 29 29 30 30 30 30 30 29 28 27
4 4 5 2 3 5 6 4 8 5 6 7 4 4 4 2 2 3 4 4 5 2 3 1 1 4 5 6 5 5 7 7 8 9 11 12 12 11 11 12 11 8 8 8 6 7 10 12 13 14 16 18 20 21 19 18 18 18 17 16 17 18 18 19 20 23 23 21 20 19 17 16 17 18 20 22 23 25 26 27 27 27 27 27 28 28 29 29 30 31 31 32 31 31 30 29 27
5 5 5 3 3 6 3 3 7 5 6 6 5 5 2 1 3 2 4 5 1 3 3 5 5 5 4 6 7 7 8 9 9 10 11 12 12 10 9 10 9 7 8 7 6 8 11 12 13 14 16 17 18 20 19 18 17 17 16 15 16 16 17 19 21 22 21 19 18 18 17 18 19 20 21 23 24 26 27 27 28 28 28 28 28 28 29 29 30 31 32 32 32 31 29 27 25
6 4 5 6 6 6 2 3 5 4 7 5 3 3 1 3 3 0 4 4 3 4 3 5 6 6 6 7 7 8 9 9 10 9 9 9 9 9 8 9 10 9 8 7 7 9 10 12 13 14 15 16 17 18 18 17 16 15 14 14 14 15 17 20 21 20 18 17 17 17 18 18 20 21 22 24 25 26 27 27 27 27 27 27 28 28 29 30 30 31 32 31 31 29 27 25 24
9 6 4 6 7 6 3 3 5 6 7 3 2 4 3 4 3 1 2 2 5 5 6 6 7 8 7 7 6 7 8 7 6 5 5 7 8 8 8 9 10 10 8 7 8 10 11 13 14 14 15 15 17 18 18 16 14 14 14 13 14 15 18 21 21 19 17 17 18 18 18 19 21 22 24 25 26 26 26 26 26 26 26 26 27 27 28 29 30 30 30 30 29 28 26 25 23
8 6 3 4 5 5 5 6 7 7 6 3 5 7 3 0 1 1 2 5 6 8 9 7 6 6 5 4 6 7 6 4 3 3 5 6 7 7 7 9 10 10 9 8 9 10 11 13 13 13 13 14 16 19 18 15 14 14 13 13 14 17 20 21 21 19 19 19 19 19 19 21 22 24 25 26 26 26 26 26 26 25 26 26 26 26 27 28 28 28 28 27 26 26 25 24 23
3 5 5 5 5 4 5 7 6 5 4 4 7 5 3 2 1 0 3 6 6 8 8 7 6 6 5 5 6 5 3 2 2 3 5 6 6 6 7 9 10 10 10 9 10 11 11 12 13 11 12 13 16 18 17 15 14 14 13 13 15 18 20 21 21 20 20 19 19 19 20 22 23 25 26 26 27 27 26 26 26 25 25 25 25 25 25 25 25 26 26 25 25 25 25 23 23
4 8 9 8 7 4 5 6 6 5 3 4 6 1 5 4 2 1 4 4 5 8 7 7 7 5 5 5 6 3 2 1 1 2 3 4 5 6 7 8 9 9 10 10 11 12 11 12 11 10 11 14 17 18 17 16 15 14 13 14 17 19 20 21 21 21 20 19 19 20 21 23 24 25 26 27 27 27 27 26 25 25 24 24 24 24 24 23 23 23 23 24 25 25 24 23 22
7 9 10 9 7 6 6 5 6 4 2 4 6 1 6 5 2 4 6 3 5 6 7 7 6 5 5 5 5 4 4 2 2 2 2 4 5 6 7 7 8 9 10 10 12 12 11 11 9 9 11 15 17 18 17 16 15 13 13 16 18 20 21 21 22 21 19 18 19 21 22 23 25 26 27 27 27 26 25 24 24 24 23 23 23 22 21 21 21 22 23 24 24 24 24 24 23
7 6 9 7 6 7 6 3 3 3 1 1 3 1 6 3 1 6 5 4 5 6 6 6 5 5 5 4 4 4 5 4 5 5 4 5 5 6 8 7 8 10 11 11 12 12 10 10 8 9 13 16 18 18 16 15 14 14 15 17 18 20 21 21 21 20 19 19 20 22 23 24 25 26 27 26 25 24 23 23 23 23 22 22 21 20 20 21 22 23 24 25 25 25 24 25 24
5 5 6 4 5 5 5 3 3 2 1 1 2 2 5 4 6 7 5 5 6 7 6 6 5 5 5 4 4 5 7 6 7 6 5 7 7 7 9 9 9 11 12 13 13 12 10 9 8 10 15 17 18 17 16 15 15 15 16 17 18 19 20 20 20 20 19 20 21 22 23 25 26 26 26 25 24 23 23 22 22 21 21 20 20 20 20 21 23 24 25 25 25 25 24 24 25
4 3 3 3 3 2 5 4 4 2 1 3 5 0 5 6 8 6 5 4 5 6 7 5 5 4 5 5 4 5 8 9 9 8 7 7 8 9 9 10 11 12 13 13 13 12 9 7 8 12 15 17 18 17 16 15 16 15 15 17 17 18 19 19 20 20 20 21 21 23 24 25 25 25 24 24 24 23 22 21 20 19 19 19 19 19 21 22 23 24 24 24 25 25 24 24 24
3 3 3 4 3 1 6 4 3 2 1 5 6 1 5 5 7 6 5 5 5 4 7 6 5 5 5 5 5 5 8 11 11 9 8 7 7 8 9 10 11 12 13 12 12 10 7 7 9 13 16 17 17 16 15 15 15 15 15 16 17 18 20 20 20 20 20 20 22 24 24 25 24 24 24 23 23 21 19 18 18 19 19 19 20 20 21 22 22 23 23 24 24 24 25 25 25
4 4 2 3 3 2 4 2 3 2 1 4 4 1 4 3 5 6 5 5 5 4 7 7 6 6 5 5 5 5 7 10 12 12 8 6 6 7 8 9 9 10 11 11 11 8 6 8 10 13 15 16 16 15 15 15 15 14 15 17 17 19 21 20 20 20 20 21 23 24 24 24 24 23 24 23 22 19 17 17 18 19 20 20 21 22 22 21 21 23 24 24 21 22 23 24 26
4 4 3 1 1 1 3 2 4 6 3 3 4 0 5 5 6 8 5 4 5 4 7 7 6 6 6 5 5 6 6 6 11 13 9 6 6 6 6 6 6 8 9 10 9 7 6 9 11 13 15 15 15 14 14 14 15 15 16 18 18 21 21 20 20 20 21 22 23 24 24 24 23 23 23 21 19 17 17 18 19 20 21 22 22 21 20 20 21 22 25 24 20 20 21 22 25
3 2 3 2 1 1 2 2 3 7 5 4 5 2 6 8 8 7 5 4 4 5 6 6 6 6 6 5 5 6 6 6 13 15 11 8 7 6 5 4 5 7 8 9 8 6 6 9 11 13 15 15 14 14 14 15 16 17 18 20 21 23 22 20 21 21 21 22 23 23 23 22 22 22 21 19 17 17 18 20 20 21 22 22 21 20 19 21 23 23 24 23 21 21 19 20 24
8 5 4 4 1 0 3 4 3 4 3 4 4 2 7 9 8 7 6 4 3 6 5 5 6 5 6 5 5 6 5 9 15 16 12 10 8 6 4 3 5 6 7 8 7 6 7 9 11 13 14 14 14 14 15 17 18 19 20 22 24 24 21 20 20 20 21 21 21 22 21 21 21 21 19 18 17 18 20 21 21 22 22 22 20 18 19 22 23 23 24 22 22 22 20 21 24
8 6 5 4 2 1 3 3 4 1 1 3 2 3 7 8 9 8 6 5 4 6 6 6 6 5 6 5 7 7 6 11 15 15 13 10 8 6 4 3 5 6 7 7 6 5 6 8 10 12 12 13 14 15 16 17 19 20 21 22 24 23 19 19 19 19 20 21 20 21 20 20 20 20 19 18 19 20 21 22 22 23 23 21 18 17 19 21 21 21 22 21 21 22 22 22 25
7 6 5 4 2 2 3 3 5 3 0 3 2 4 8 8 9 8 5 4 5 6 5 6 7 6 6 6 8 8 7 10 14 16 15 11 8 6 4 3 5 6 6 6 5 5 6 8 10 11 11 13 14 15 16 17 18 20 21 22 23 22 18 19 19 19 20 20 20 20 20 20 20 20 19 20 21 22 22 22 23 23 23 20 16 16 19 21 20 20 21 21 20 19 19 22 25
6 4 4 2 1 3 5 3 4 4 0 3 4 5 9 10 8 8 6 5 6 6 6 6 5 6 7 6 7 7 7 8 11 14 16 14 8 5 5 3 5 5 5 5 4 4 6 8 9 10 11 13 14 15 16 17 18 19 21 22 23 22 19 19 19 19 21 21 20 20 20 21 21 21 21 21 22 22 22 21 22 22 22 19 15 17 21 21 20 20 20 20 21 18 17 20 22
4 4 3 0 1 1 2 2 5 4 1 1 4 4 7 7 5 7 5 4 5 4 5 6 5 6 8 7 6 5 7 8 8 12 16 15 9 3 4 3 4 5 4 3 3 4 6 7 9 10 11 12 13 14 15 17 18 20 22 23 23 21 20 20 21 21 22 22 21 21 22 22 22 22 21 22 22 21 20 20 21 22 21 17 14 17 21 21 20 19 19 18 20 19 17 19 19
3 2 3 0 1 1 3 4 4 4 2 2 4 5 4 4 4 6 4 3 5 4 4 6 4 5 6 6 6 6 7 7 7 9 13 14 10 4 4 3 5 5 4 3 3 4 5 6 8 9 10 12 13 14 15 17 20 23 25 26 26 24 23 22 24 24 23 23 23 23 22 22 22 22 22 22 22 22 21 20 21 22 21 17 13 17 20 19 19 18 18 18 17 17 17 17 16
3 1 2 2 2 1 3 5 4 4 3 3 5 5 4 5 4 6 4 5 6 5 5 7 6 5 4 5 6 5 5 7 8 9 11 12 11 7 4 4 5 5 4 4 3 3 4 5 7 8 10 12 13 15 16 19 21 24 26 26 25 24 23 23 23 23 23 23 23 22 22 22 22 22 22 22 22 22 21 21 22 21 21 18 13 17 20 18 18 17 17 16 15 15 15 15 14
2 1 2 4 3 1 2 3 3 1 3 3 4 3 3 6 5 6 4 5 7 6 5 7 6 5 4 4 5 5 5 5 6 9 10 10 10 7 5 4 4 5 4 4 4 3 3 4 6 8 10 11 13 15 17 19 22 24 24 22 20 18 19 19 19 20 20 22 22 22 23 22 22 22 22 22 22 22 21 21 22 20 20 17 13 17 19 17 17 16 15 15 14 14 14 14 14
0 1 3 3 2 1 0 3 2 1 2 3 4 4 1 4 5 5 4 4 7 7 7 8 6 5 5 5 5 5 5 5 4 6 9 9 8 7 5 4 4 5 5 5 4 3 3 4 6 7 9 11 13 15 17 20 22 23 22 20 18 16 16 17 18 19 20 21 22 23 23 23 23 22 22 22 21 21 21 21 21 19 19 17 13 17 18 16 16 16 15 14 13 14 13 13 14
2 2 3 1 1 2 2 3 2 1 2 3 4 3 1 5 6 5 3 3 6 7 7 7 6 6 5 5 6 6 6 6 5 6 10 11 9 6 5 5 4 5 5 5 4 3 3 4 5 6 8 10 13 15 17 20 21 22 21 19 18 16 15 16 17 19 20 21 22 23 24 24 23 23 22 22 21 21 21 20 19 19 19 17 14 16 17 16 16 15 15 14 14 14 13 13 13
1 2 1 1 3 2 3 3 2 2 3 3 4 2 1 4 6 4 2 2 5 7 6 6 6 6 6 6 7 6 6 6 6 8 10 11 8 5 5 5 5 5 5 5 5 4 3 4 5 7 9 10 13 15 17 19 21 21 20 18 17 16 16 17 18 19 20 21 22 23 24 24 24 24 23 22 21 22 21 19 18 18 18 16 15 16 16 16 16 15 14 13 14 13 13 13 12
1 2 1 2 3 3 3 2 2 4 3 5 4 1 2 2 5 4 2 3 5 4 3 5 6 6 6 7 6 6 6 5 6 9 10 7 5 5 5 4 4 5 6 6 5 4 4 4 5 7 8 10 13 15 17 19 20 20 18 17 16 15 16 17 18 20 21 22 23 24 24 24 23 23 23 22 22 22 21 19 18 18 17 16 16 16 16 16 15 14 13 13 14 13 13 13 13
2 2 2 2 4 3 3 4 4 3 3 5 4 2 2 1 5 5 4 5 5 5 4 5 6 6 6 6 6 6 5 5 5 8 8 5 4 5 4 4 4 5 6 7 6 5 4 4 5 6 8 10 13 15 17 19 20 19 17 16 15 14 15 16 17 18 19 20 21 22 23 24 24 23 23 22 22 22 21 19 18 18 17 16 16 16 15 15 15 14 14 14 14 13 13 14 14
4 3 4 3 4 4 2 3 2 2 4 2 1 1 1 5 7 6 6 7 7 6 6 6 6 6 5 6 6 5 5 5 5 6 7 7 5 4 3 4 5 5 7 7 7 6 5 4 5 6 9 11 13 15 17 19 19 18 16 15 14 14 14 16 16 17 18 18 19 20 21 22 23 23 23 22 22 21 20 19 18 17 16 15 15 15 14 14 14 14 14 14 14 14 14 15 15
4 2 3 3 2 4 3 4 2 3 3 2 2 2 2 4 5 6 7 6 6 6 6 6 6 6 7 7 6 6 6 6 5 5 7 7 6 5 5 4 4 5 6 8 7 6 5 4 5 6 9 11 13 15 17 18 18 16 15 14 14 14 15 15 16 17 17 17 18 19 19 19 20 20 21 20 20 19 18 17 17 16 15 14 14 14 14 13 13 13 13 13 13 14 14 14 15
1 3 4 2 3 2 3 3 1 4 5 4 3 1 3 2 2 4 6 5 5 4 5 5 6 7 6 6 7 7 7 6 5 5 7 8 7 6 6 5 4 5 6 7 7 6 5 4 4 6 9 11 13 15 17 18 17 15 14 13 13 14 14 15 16 16 16 17 18 18 17 18 18 18 18 17 17 18 17 16 16 14 14 13 13 13 13 12 12 12 12 12 13 15 16 16 17
1 2 3 2 2 3 1 2 4 1 3 4 2 2 5 3 3 3 3 4 4 4 5 5 6 6 4 6 7 6 6 6 4 4 6 8 8 7 7 5 4 5 6 7 7 6 5 4 4 6 9 11 13 15 17 17 16 15 13 13 13 13 14 15 16 16 16 17 17 17 17 17 17 17 17 17 17 16 16 16 15 14 13 13 12 13 12 11 11 11 12 13 14 16 17 17 18
1 2 2 1 3 6 4 0 0 4 2 4 2 3 5 3 1 3 5 4 5 5 5 5 6 6 5 6 6 5 6 6 5 5 7 10 9 8 6 4 4 5 6 7 7 6 5 4 4 6 9 11 13 15 16 15 14 14 13 12 13 13 14 15 16 16 16 17 16 16 17 17 17 16 16 16 16 16 15 15 14 14 13 12 12 12 11 10 10 10 12 14 15 17 18 18 18
2 2 2 2 3 5 4 1 4 5 1 4 3 3 6 3 1 4 5 4 6 6 5 6 7 6 6 6 6 6 6 6 6 7 10 12 10 7 5 3 5 6 6 7 7 6 5 3 4 6 9 11 12 14 15 14 14 13 12 12 12 13 14 14 15 16 16 17 16 16 17 17 16 16 16 16 16 16 15 14 14 13 13 13 12 12 12 10 9 10 12 14 16 18 19 19 19
2 2 2 2 2 1 2 2 1 3 2 5 5 4 4 2 3 2 2 2 5 6 5 6 6 6 6 6 7 7 6 6 6 6 9 11 9 6 4 3 5 6 6 8 7 6 4 3 4 6 9 10 12 14 14 13 12 12 11 11 12 13 13 14 15 16 16 16 16 17 17 17 16 16 15 15 15 15 15 14 14 14 14 13 13 13 12 10 10 12 14 16 16 18 19 20 20
2 3 3 2 3 2 1 2 2 1 2 4 5 5 3 5 5 3 4 5 5 4 4 5 7 7 6 6 6 6 6 6 6 6 8 11 9 6 4 4 6 6 7 8 7 6 4 3 4 6 8 10 12 13 13 12 12 11 11 11 11 12 14 15 15 16 16 16 16 17 17 17 16 15 15 15 15 15 14 14 14 14 15 14 14 14 12 11 12 14 16 17 17 17 19 21 22
1 3 3 1 2 2 1 1 2 2 1 1 2 5 6 6 4 5 6 6 5 6 5 5 7 7 6 6 6 5 6 6 7 6 9 12 11 7 6 5 6 6 8 8 7 6 4 3 4 6 8 10 12 13 13 12 11 11 10 11 12 13 14 15 16 16 16 16 16 16 17 17 16 15 15 15 15 14 14 14 15 15 15 15 15 14 12 12 14 16 16 17 19 21 22 23 23
3 1 1 2 2 3 2 3 3 2 2 3 2 4 9 6 2 4 5 4 4 5 4 5 7 7 7 7 6 6 6 7 7 7 10 13 12 9 8 6 6 7 9 9 8 6 4 3 4 6 8 10 11 13 12 11 10 10 10 11 12 13 14 15 16 17 16 16 16 16 17 16 15 15 15 14 14 14 14 14 15 15 15 15 15 12 11 13 15 17 18 19 21 24 25 24 24
Wind_Direction
59 63 52 52 124 107 26 42 67 12 67 78 51 65 41 45 76 63 5 335 31 45 32 47 6 20 78 92 114 114 55 32 25 9 85 324 335 345 10 5 356 360 5 11 11 12 14 23 21 9 12 14 14 15 15 17 17 18 18 18 19 19 19 20 20 20 21 21 23 23 24 25 27 27 27 27 26 25 24 26 27 26 25 23 22 21 21 22 22 21 20 21 23 25 26 27 28
74 89 79 79 79 76 9 40 84 20 61 77 32 42 40 34 62 36 339 276 137 155 170 120 71 70 98 120 133 122 62 43 207 244 269 314 345 13 354 338 338 348 3 9 11 15 16 24 18 7 11 13 14 15 15 17 17 17 16 17 17 17 19 20 21 21 21 22 23 23 23 24 25 26 26 26 25 24 25 26 25 24 24 22 21 21 19 18 18 19 18 20 22 23 23 26 28
97 118 93 74 59 55 62 41 76 67 69 81 47 49 42 40 61 38 20 137 141 149 164 152 90 59 75 107 81 32 76 136 172 218 276 321 347 336 331 333 343 355 6 10 15 19 19 25 17 6 10 12 13 14 14 15 15 16 15 16 16 17 18 20 22 22 22 22 23 23 23 24 24 25 25 25 24 24 24 24 24 22 22 21 20 20 19 17 17 17 17 19 22 22 20 24 27
100 123 103 75 56 38 56 49 69 88 81 96 85 50 50 90 96 82 64 113 141 152 189 274 61 14 30 68 11 353 76 35 353 336 295 324 326 324 337 349 5 14 17 19 22 23 25 28 16 7 11 11 12 12 13 14 13 14 14 15 15 16 17 19 21 22 23 23 24 24 24 24 24 25 24 24 24 24 24 23 22 20 20 19 19 19 18 17 17 16 16 18 21 22 20 22 24
87 84 74 87 78 37 75 72 58 67 88 117 105 81 84 111 106 105 103 114 140 190 235 79 74 333 63 60 7 69 23 328 334 318 315 334 334 334 344 359 20 25 25 27 28 28 29 30 16 9 13 11 11 12 12 12 11 12 13 14 14 15 16 18 20 21 23 24 25 24 24 24 25 25 24 24 24 23 23 22 20 18 18 17 17 18 18 17 16 16 15 16 19 20 21 22 22
85 74 66 74 84 101 82 74 70 65 54 340 92 100 94 114 119 120 123 117 96 59 55 52 108 132 88 18 30 123 297 311 336 335 339 346 344 341 344 357 27 24 24 26 29 31 31 32 22 12 12 11 11 11 10 9 9 11 12 13 14 15 16 17 19 20 22 24 25 24 23 23 24 24 24 23 22 21 21 20 19 17 15 15 15 15 15 15 14 14 15 15 17 18 18 19 19
88 70 56 67 69 50 72 76 75 58 31 17 61 77 75 110 125 125 125 118 64 31 44 54 113 102 71 321 23 13 11 356 327 348 348 345 343 342 349 357 24 19 20 24 26 29 30 31 27 14 8 10 10 9 8 7 8 9 11 12 12 14 15 16 17 19 20 22 23 24 23 23 23 23 23 22 20 20 20 19 17 15 14 13 12 12 12 12 11 11 12 13 12 13 16 16 17
72 71 27 68 64 34 75 78 60 50 33 31 38 47 45 52 87 90 48 57 55 360 10 334 220 90 30 5 81 333 10 359 329 341 335 337 334 332 343 356 12 14 18 22 22 23 22 23 24 16 7 8 8 8 7 6 7 8 10 11 11 13 14 15 16 17 18 19 20 22 22 23 23 23 23 21 20 20 19 18 16 15 13 12 10 9 8 8 8 7 7 8 7 7 11 12 13
61 54 59 69 79 68 74 70 51 56 41 42 34 35 34 29 55 76 63 62 72 22 14 327 278 97 91 34 8 296 335 336 335 331 327 336 330 324 330 346 354 2 11 13 14 15 15 15 16 16 12 8 5 5 6 6 7 7 9 10 11 13 13 14 14 14 15 16 17 19 20 20 21 22 22 21 21 20 19 17 16 15 13 11 9 7 6 4 4 4 3 3 2 1 2 1 3
48 26 79 71 80 88 71 60 56 69 60 59 39 26 16 14 53 66 78 74 3 67 8 346 52 90 111 32 323 300 327 327 340 335 331 336 330 323 316 335 337 343 357 3 8 9 8 7 7 9 11 11 7 5 7 7 7 7 8 9 11 13 14 13 12 12 12 13 14 15 17 18 18 18 19 18 19 19 19 18 17 15 13 11 8 6 3 1 1 1 1 359 357 355 353 352 355
54 359 76 80 67 88 91 89 80 85 59 53 32 20 8 1 57 50 64 88 17 52 359 356 60 83 89 8 286 307 327 325 343 341 335 331 326 319 309 322 322 327 341 351 360 1 360 360 359 359 4 10 7 6 7 8 7 7 8 8 10 13 13 12 11 12 11 11 11 12 13 13 14 14 15 15 16 16 16 16 15 14 13 11 9 6 3 0 360 358 359 357 355 353 352 353 355
81 351 66 79 66 96 115 114 102 104 51 28 7 356 358 18 57 38 47 81 14 40 21 13 31 1 72 5 283 310 327 330 338 340 336 329 316 306 305 308 312 318 327 335 342 348 353 355 355 354 1 7 4 4 6 7 9 9 9 8 11 14 13 12 12 12 11 10 8 8 9 9 10 10 11 11 12 12 12 12 12 11 10 9 7 6 3 1 359 357 357 355 355 354 353 355 353
98 126 87 83 71 105 111 114 112 102 40 16 11 350 4 39 53 324 80 73 17 45 18 353 322 336 93 296 308 333 341 354 346 348 342 337 326 311 306 306 312 317 320 322 324 334 346 353 354 353 359 2 0 3 5 6 8 8 9 10 14 15 14 13 12 13 11 9 7 5 6 6 6 6 6 6 7 8 8 8 8 7 6 6 4 3 2 1 359 357 356 355 355 355 353 351 350
117 147 91 100 92 98 104 102 119 101 62 268 61 12 27 49 45 314 95 65 18 54 307 328 347 42 104 314 327 322 345 14 360 352 339 330 321 315 310 308 311 316 320 317 317 325 339 353 352 351 356 357 358 4 6 6 6 8 10 13 16 15 13 14 13 12 9 7 7 5 5 0 359 1 359 360 1 2 5 4 4 4 2 2 1 0 360 359 359 357 355 355 353 353 352 347 345
106 143 77 100 108 85 65 100 141 113 116 256 77 72 58 39 274 48 71 86 19 276 282 333 15 49 122 82 277 279 343 25 344 303 316 322 321 324 321 315 317 320 324 321 322 325 336 354 352 352 355 355 360 5 7 6 8 11 12 15 15 12 10 11 11 9 5 5 5 4 3 358 356 355 352 354 356 356 0 1 1 0 359 358 358 357 357 357 357 356 355 353 351 350 349 342 335
92 119 74 88 112 107 108 127 143 105 139 166 121 120 72 30 18 71 26 116 88 332 3 359 1 54 145 143 217 268 11 4 299 301 311 325 331 341 339 330 328 328 334 337 341 338 340 352 354 359 358 359 3 5 6 7 13 15 13 13 12 9 5 5 7 6 3 360 360 359 357 356 355 353 349 351 352 351 354 357 356 357 356 356 356 354 353 354 354 354 353 351 350 346 339 334 330
57 78 75 85 111 132 152 152 158 131 149 163 130 67 100 74 1 90 41 67 74 356 22 342 334 73 166 196 230 287 348 294 303 308 317 332 336 342 347 343 341 340 345 351 353 349 347 353 358 2 360 2 4 3 6 8 15 16 13 11 8 6 3 360 1 3 2 356 353 353 353 355 356 351 348 347 348 348 349 350 351 351 351 353 353 352 350 351 351 349 348 348 347 341 332 328 329
47 59 76 97 120 130 160 170 169 130 132 151 80 66 117 127 339 161 34 24 27 30 20 350 357 14 72 240 315 317 297 301 308 315 324 332 335 336 343 348 350 350 348 351 355 353 355 1 2 1 1 5 4 3 8 10 12 12 10 10 5 1 358 357 358 359 358 355 351 351 354 357 357 352 348 347 345 345 345 346 346 346 346 348 348 346 345 347 347 344 344 343 340 336 333 330 329
58 85 76 95 164 92 113 154 145 108 131 128 76 72 91 109 278 57 58 357 8 46 17 2 16 353 348 341 308 307 296 302 307 315 319 322 328 329 336 345 350 355 351 350 358 1 2 3 3 3 4 6 4 3 8 10 9 6 2 3 2 358 354 353 354 354 353 351 350 351 354 357 353 348 346 344 343 342 343 344 345 344 343 344 343 341 341 342 342 340 341 340 337 335 334 334 332
44 79 76 71 176 77 24 93 101 96 128 121 93 77 61 28 302 59 111 63 25 42 346 18 26 315 311 315 313 308 302 309 309 310 313 317 326 327 335 342 346 355 356 354 2 8 3 3 5 7 6 4 4 2 3 4 3 0 354 354 356 354 352 350 351 352 351 349 349 351 353 352 346 342 340 338 339 340 342 344 345 345 343 342 340 338 338 339 339 338 339 338 338 337 336 335 333
44 48 89 139 146 79 11 65 97 82 103 116 119 93 64 347 352 82 131 80 28 321 231 183 183 255 276 306 324 320 307 312 317 321 323 324 328 328 333 340 345 354 357 357 2 3 0 3 8 10 7 3 2 360 358 355 353 353 348 346 349 348 348 348 350 350 350 349 351 353 350 346 342 340 338 337 338 340 341 342 343 343 342 341 340 339 338 338 338 337 338 338 338 338 337 336 335
74 34 68 90 97 92 21 52 90 84 90 92 91 92 90 331 19 74 130 107 120 246 228 214 221 233 259 304 320 319 314 321 328 334 336 335 338 339 343 352 1 3 358 357 356 358 360 5 7 6 5 0 358 357 354 349 346 346 342 341 343 345 348 349 350 351 351 352 352 351 345 342 340 338 337 338 339 340 341 341 341 341 340 339 339 340 340 339 339 339 338 338 338 337 337 337 337
94 51 30 42 61 95 85 35 56 71 90 78 88 110 86 70 52 61 121 122 225 248 261 254 260 273 291 305 315 323 323 325 330 338 349 358 7 12 14 13 12 5 0 359 359 2 1 3 360 357 359 355 353 352 349 345 342 340 336 336 341 346 351 353 354 354 353 353 351 349 345 342 340 338 339 339 339 340 341 340 340 339 338 337 337 338 338 338 339 338 338 338 337 338 338 339 339
81 86 39 41 55 63 50 59 57 61 79 67 116 90 40 74 92 31 58 282 271 292 308 297 287 294 298 298 315 331 326 324 334 359 18 21 26 24 19 14 10 5 4 6 5 4 359 356 351 350 355 350 347 347 345 342 338 337 334 334 341 349 353 356 357 354 351 349 348 346 344 343 341 341 342 342 342 340 340 340 339 338 338 337 336 337 337 336 337 337 337 337 337 339 339 341 341
58 91 79 49 53 48 54 70 61 63 71 50 70 62 10 31 131 66 332 283 287 312 320 319 310 314 320 318 326 330 335 349 2 28 31 24 25 19 17 14 11 9 7 9 4 358 355 349 344 347 350 343 343 346 346 344 340 339 336 336 344 350 354 357 357 352 347 346 345 344 343 344 344 344 345 344 343 341 341 340 339 338 338 338 338 338 339 338 338 338 338 338 339 340 340 342 342
39 92 93 78 73 45 53 63 45 51 49 36 66 47 329 299 303 99 270 269 300 325 332 347 353 339 333 333 323 318 334 6 9 22 32 29 25 16 18 17 13 10 3 3 356 349 349 345 343 344 343 342 345 348 350 349 347 345 341 342 348 352 355 357 356 350 347 345 343 343 343 343 344 344 344 343 342 342 341 339 339 339 339 339 340 341 341 341 341 340 341 341 342 343 343 343 341
110 98 89 81 87 43 40 62 24 24 32 42 88 74 301 317 348 255 267 279 337 343 338 350 2 329 306 310 303 277 249 281 359 5 24 21 18 11 7 4 3 5 358 355 350 343 344 343 340 339 341 348 351 352 351 350 350 348 345 347 350 353 356 356 353 350 348 346 343 343 343 343 343 342 342 341 341 340 340 339 340 340 340 341 343 343 343 344 343 343 343 344 345 345 344 343 342
110 104 87 60 68 51 31 53 14 11 60 58 95 150 299 332 23 221 253 313 6 354 327 333 349 312 300 303 285 230 223 233 246 283 331 346 352 349 346 348 344 349 349 345 342 339 340 339 335 338 347 354 356 354 353 353 355 353 349 349 352 354 355 353 351 352 350 346 343 342 344 343 342 341 340 340 340 340 340 340 341 342 343 343 344 345 345 345 344 343 344 345 345 346 344 343 342
98 89 85 46 38 46 14 12 351 7 77 38 100 358 304 317 274 237 263 327 3 8 335 328 336 310 309 310 279 231 235 239 254 274 293 313 325 323 328 339 333 335 339 337 337 337 338 337 336 346 354 357 358 358 357 359 1 357 352 351 352 352 350 350 351 353 349 344 342 342 342 341 341 341 340 341 342 342 342 342 343 344 345 345 346 346 345 346 345 344 346 346 346 346 345 344 342
78 48 78 51 17 25 357 344 327 355 45 322 108 334 294 272 263 259 300 343 10 4 330 319 326 313 307 300 286 260 251 246 263 280 288 300 311 309 318 335 334 331 331 332 334 334 334 334 343 352 356 359 359 0 359 360 0 357 354 350 349 348 348 349 351 351 345 341 340 340 340 341 341 342 342 343 343 344 344 345 347 347 347 347 347 347 346 346 345 345 347 348 347 347 346 345 342
65 36 42 44 57 344 319 339 349 15 30 21 85 101 278 278 277 277 317 2 38 348 308 307 315 304 293 283 282 275 258 248 262 280 287 296 304 304 309 326 335 332 328 329 329 330 331 334 348 354 356 359 359 359 357 357 359 355 351 347 345 346 347 349 349 347 342 340 339 339 340 341 342 343 344 344 344 346 348 349 351 350 349 347 346 347 346 345 346 346 349 350 348 347 346 345 343
43 71 2 3 84 319 310 331 12 48 353 22 73 229 276 283 279 280 320 15 48 334 300 301 300 291 284 278 275 275 268 261 263 270 282 295 303 307 308 318 331 333 331 331 330 331 333 341 352 354 355 357 357 358 355 354 354 351 346 343 342 345 347 348 347 344 339 338 338 340 341 343 346 346 346 346 347 351 354 353 352 350 348 347 346 347 347 348 349 347 348 352 350 348 346 344 342
6 76 73 343 46 17 323 338 13 27 331 359 44 281 276 303 295 300 335 24 38 334 300 295 290 284 278 277 278 281 284 280 274 269 275 295 305 311 309 317 328 331 335 337 338 338 340 349 354 355 355 356 356 355 352 350 349 345 341 340 341 344 346 346 344 341 339 339 341 343 345 347 349 348 348 350 353 358 358 354 352 350 349 348 348 348 351 353 353 349 347 352 355 350 348 346 343
358 48 90 10 14 34 331 324 355 17 36 350 19 272 257 283 296 304 325 26 26 322 296 293 290 289 285 285 286 283 287 289 281 277 285 299 307 319 311 320 329 332 343 345 346 349 349 356 357 355 355 354 354 353 349 347 344 342 340 341 341 344 346 345 343 341 341 342 344 347 348 349 350 349 351 355 360 3 359 354 352 351 349 350 352 354 357 358 355 352 350 354 358 354 353 350 345
120 97 109 86 2 79 326 291 339 9 27 5 10 338 282 298 306 302 305 25 16 288 280 289 287 289 287 289 285 279 284 278 274 281 295 297 303 322 315 325 337 339 352 355 357 359 356 359 355 352 352 352 352 348 345 342 341 340 341 341 341 345 347 344 342 341 341 344 347 349 350 351 352 353 358 1 4 3 357 355 354 353 354 356 360 2 3 359 355 355 355 357 356 357 359 354 349
135 140 122 115 103 263 264 261 304 359 20 349 358 309 289 299 305 297 297 3 357 286 291 293 286 286 283 285 277 274 278 270 272 283 295 291 294 311 311 327 342 346 355 0 5 1 354 352 350 351 351 350 347 344 344 342 342 342 343 344 343 346 346 341 342 342 344 350 351 352 354 355 356 359 3 5 5 1 358 358 358 358 0 4 9 9 5 359 356 357 358 358 355 356 1 360 356
113 105 89 97 116 287 279 282 301 337 45 299 281 284 284 281 281 273 287 333 322 290 295 290 287 287 280 279 275 271 266 268 277 286 289 287 290 292 290 313 336 346 349 355 2 356 352 348 350 354 352 348 345 347 349 347 349 349 349 348 345 347 345 342 346 347 350 356 356 357 360 0 1 4 6 5 5 2 0 1 0 1 4 8 12 11 2 358 0 1 0 0 358 356 358 0 360
82 100 93 65 82 265 272 267 305 343 62 259 313 322 289 272 270 266 279 304 275 258 261 272 280 285 283 275 272 272 273 282 289 290 288 292 292 274 263 297 328 338 341 349 360 354 349 347 352 354 350 348 348 349 350 349 354 352 350 348 344 346 347 345 350 353 356 1 1 2 4 4 5 8 8 5 5 4 2 1 360 0 4 7 9 5 359 358 3 6 4 1 359 359 357 359 3
59 83 100 69 21 285 277 270 326 353 176 268 340 338 288 269 264 264 254 237 244 233 221 242 261 279 286 275 272 281 289 296 300 298 297 304 306 267 246 286 321 328 331 343 354 347 342 346 352 351 348 348 347 348 347 348 350 347 346 347 345 347 349 349 354 359 1 4 6 6 7 8 8 9 7 3 3 3 2 1 359 360 4 8 5 358 356 359 5 7 7 1 357 358 356 1 8
51 57 88 234 300 337 279 305 340 339 41 292 306 302 284 288 296 278 254 231 260 262 240 242 229 244 267 272 271 271 280 289 296 298 300 311 324 276 243 286 313 309 314 326 331 330 337 345 349 348 347 347 346 346 346 346 345 344 346 347 347 349 350 353 358 2 4 5 7 7 8 7 6 6 4 2 2 3 5 3 360 0 4 11 7 355 354 0 5 5 6 4 0 357 351 357 6
21 71 100 183 296 169 239 294 334 331 1 20 330 324 303 325 336 287 292 324 298 315 310 285 255 242 265 283 275 250 251 266 275 286 296 311 325 301 255 282 304 300 295 295 303 319 335 344 347 346 345 345 346 345 345 345 344 346 348 348 349 351 355 359 1 3 4 4 5 6 7 6 4 5 3 1 1 2 4 2 0 0 3 12 8 352 355 1 3 4 4 2 5 0 347 349 358
6 42 120 165 188 193 284 317 3 17 354 355 21 13 302 317 317 269 309 346 308 328 337 301 293 293 293 288 279 269 259 255 251 261 282 303 317 311 269 270 296 291 271 269 285 309 331 341 344 344 344 345 345 346 347 347 348 351 352 352 353 355 357 1 2 1 0 2 3 3 4 4 4 3 2 1 360 360 2 359 360 0 1 10 5 348 356 2 1 4 4 1 5 2 351 347 349
31 319 136 146 143 113 348 358 39 44 294 313 51 86 267 315 317 277 314 333 302 313 313 288 292 304 302 279 272 280 281 275 264 267 282 303 319 312 269 265 293 271 251 255 266 291 318 331 338 339 341 344 346 348 348 349 351 354 354 355 359 359 359 0 0 0 360 360 0 0 2 3 4 3 2 1 359 359 1 358 360 0 0 9 360 347 358 3 0 2 2 1 2 2 360 350 343
327 264 121 129 116 114 72 74 87 193 265 327 29 95 202 295 286 280 312 317 305 308 294 289 291 287 291 285 277 278 275 278 282 287 298 308 316 304 268 264 282 257 243 248 254 274 294 317 332 335 340 344 348 349 349 351 354 355 354 355 360 3 2 360 359 1 0 358 358 358 359 1 3 3 1 0 359 360 1 359 0 0 1 7 357 351 0 1 359 1 358 1 1 0 1 352 344
265 215 140 152 127 152 143 100 101 39 17 325 332 49 101 272 276 303 335 312 300 290 271 276 281 275 282 286 283 282 278 276 268 272 287 295 301 290 257 255 271 255 243 245 248 262 284 314 328 331 340 347 350 349 349 353 355 354 354 355 359 3 2 1 360 1 359 356 356 356 357 358 359 1 1 0 360 1 3 1 1 1 2 5 357 354 1 359 358 358 357 359 359 358 360 354 348
254 167 128 45 62 68 70 89 122 49 26 267 277 10 47 274 283 310 346 265 263 267 264 264 267 268 270 272 276 278 284 288 277 272 278 284 288 269 240 248 264 253 244 243 242 253 282 308 318 326 339 347 349 349 351 354 355 354 354 356 359 2 1 1 1 0 358 355 355 356 357 357 356 358 359 0 0 1 3 3 3 3 2 2 358 357 360 359 357 356 357 360 358 356 357 355 349
117 93 7 6 15 14 39 52 91 59 339 256 252 330 71 305 285 259 225 219 209 213 252 262 267 277 265 256 260 265 272 282 283 287 289 281 262 239 235 250 259 250 244 238 237 247 271 291 309 325 338 346 348 350 353 354 355 355 355 357 0 2 2 1 2 0 358 356 355 355 356 355 355 357 358 359 0 360 1 3 4 3 2 2 1 360 360 359 358 358 360 0 360 359 358 355 352
93 77 21 353 327 345 14 352 36 70 287 264 262 314 98 216 266 240 236 250 213 177 182 215 245 267 263 256 257 252 254 268 278 286 289 280 244 232 241 252 249 245 241 229 228 242 259 281 304 323 337 346 349 351 353 355 356 355 355 358 0 2 3 3 3 2 359 357 355 354 354 352 353 356 357 358 359 358 359 1 3 2 3 4 2 1 1 1 1 3 8 8 8 10 8 2 359
56 57 55 35 342 358 355 323 348 212 249 260 268 342 164 232 246 239 249 258 235 211 198 199 219 243 257 263 266 264 260 267 272 270 272 271 260 253 260 256 242 235 233 225 225 238 254 275 299 323 339 346 349 350 353 355 356 356 356 357 358 1 2 2 3 1 359 358 356 355 354 353 353 354 356 356 356 356 357 360 1 1 3 4 3 3 3 4 6 11 18 20 19 17 12 6 1
53 89 88 72 49 25 320 290 317 283 274 277 283 316 279 272 266 231 236 247 233 228 229 222 222 236 255 265 270 282 280 268 261 255 259 267 276 284 282 265 245 231 225 222 226 237 248 267 299 327 339 346 348 349 352 355 357 357 357 357 356 359 0 1 1 359 357 357 356 356 355 354 354 353 354 354 353 354 356 359 360 359 3 5 4 4 5 8 13 18 23 22 19 15 9 4 359
78 159 119 104 135 105 279 255 263 292 295 297 308 301 208 256 293 218 227 265 270 259 260 261 255 249 260 278 281 280 277 269 256 251 261 272 282 285 279 270 253 236 228 224 225 232 243 265 305 330 340 346 348 349 352 354 356 357 357 356 356 357 358 359 360 358 356 356 355 355 355 356 355 353 354 354 353 354 357 359 360 1 5 7 5 5 8 12 17 22 25 20 13 9 5 1 358
193 163 89 68 154 132 146 197 182 223 314 300 287 233 218 227 276 277 305 310 300 299 298 298 287 281 292 293 282 275 275 276 269 268 278 283 283 277 274 272 256 240 232 227 226 229 240 266 308 331 341 346 347 349 352 353 355 356 357 357 356 356 358 357 358 357 356 356 356 353 355 358 357 356 356 355 355 358 359 360 2 6 9 9 8 7 9 14 17 20 19 14 9 5 2 360 356
71 72 96 143 136 117 107 219 26 74 40 288 283 266 290 329 322 324 357 337 308 314 311 304 292 301 317 294 284 288 286 285 288 286 284 285 282 278 280 275 255 249 239 227 223 226 237 267 309 333 342 344 347 350 352 353 354 356 357 357 355 355 357 358 357 356 356 357 356 354 356 360 360 359 359 357 357 0 4 4 5 10 13 11 9 9 10 12 15 19 14 8 3 358 355 355 353
87 84 165 161 95 98 99 20 354 38 35 284 319 283 295 345 327 327 6 345 305 295 289 301 300 303 304 286 284 288 285 292 298 289 282 280 277 277 291 283 258 254 239 225 219 221 233 269 311 334 340 343 349 351 351 352 354 356 357 355 355 355 357 358 357 357 358 358 356 355 358 1 3 2 360 358 360 2 7 9 9 12 13 10 9 9 8 10 14 14 9 4 360 354 352 353 353
112 130 145 108 93 71 35 53 5 7 318 292 312 300 271 218 230 303 22 284 281 282 292 305 290 282 284 283 290 297 301 309 303 290 283 281 280 287 303 281 260 250 228 217 215 218 232 270 313 334 340 345 349 350 352 353 354 357 357 354 354 355 357 358 359 359 360 359 356 357 0 3 4 3 1 1 4 6 9 10 10 12 11 10 11 9 7 12 15 9 4 4 3 359 354 350 349
31 27 11 32 118 148 61 73 144 223 294 295 317 326 287 232 218 192 203 231 235 245 273 276 262 262 264 267 284 297 304 306 298 289 287 290 296 308 314 284 260 244 221 214 211 215 232 268 314 334 341 344 349 351 353 354 355 356 355 354 354 355 358 359 359 1 1 360 358 359 3 5 5 3 3 5 8 9 9 9 10 10 9 8 9 9 11 17 16 11 6 3 359 353 346 340 339
45 22 2 8 76 116 151 37 98 133 167 218 323 317 281 251 210 185 212 232 213 206 221 243 257 264 265 268 276 287 296 294 287 284 288 297 307 318 319 294 258 230 213 207 207 216 234 270 316 335 341 344 349 353 354 353 354 354 352 354 356 357 359 360 0 2 2 1 359 1 5 6 6 5 6 9 12 10 9 9 10 11 9 8 7 10 18 21 16 10 4 358 352 342 337 336 334
153 151 184 156 115 108 93 330 323 101 138 172 157 293 278 264 207 205 228 238 232 228 226 249 268 271 276 282 277 278 287 284 282 289 294 300 308 315 314 296 254 224 209 203 207 218 231 272 315 333 340 344 348 352 353 352 352 352 351 354 356 358 360 0 2 2 3 2 359 2 7 6 7 8 10 14 13 10 10 11 11 11 9 8 8 13 23 19 10 2 353 352 350 341 337 338 333